Weather History for Kansas City, MO

Change the Weather History Date:

Friday, May 24, 2013

  Actual Average Record
Temperature  
Mean Temperature 62 °F -  
Max Temperature 73 °F 76 °F 89 °F (2000)
Min Temperature 51 °F 56 °F 48 °F (2001)
Degree Days  
Heating Degree Days 3    
Growing Degree Days 12 (Base 50)    
Moisture  
Dew Point 48 °F    
Average Humidity 59    
Maximum Humidity 89    
Minimum Humidity 38    
Precipitation  
Precipitation 0.00 in - - ()
Sea Level Pressure  
Sea Level Pressure 30.23 in    
Wind  
Wind Speed 6 mph (SE)    
Max Wind Speed 16 mph    
Max Gust Speed 23 mph    
Visibility 10 miles    
Events      
Averages and records for this station are not official NWS values.
T = Trace of Precipitation, MM = Missing Value Source: NWS Daily Summary

Daily Weather History Graph

Daily Weather History Graph

Search for Another Location

Airport:

Trip Planner

Search our weather history database for the weather conditions in past years. The results will help you decide how hot, cold, wet, or windy it might be!

Date:

Astronomy

May. 24, 2013 Rise Set
Actual Time 5:58 AM CDT 8:32 PM CDT
Civil Twilight 5:27 AM CDT 9:03 PM CDT
Nautical Twilight 4:48 AM CDT 9:42 PM CDT
Astronomical Twilight 4:05 AM CDT 10:25 PM CDT
Moon 8:15 PM CDT (5/24) 5:30 AM CDT (5/24)
Length of Visible Light 15h 36m
Length of Day
14h 34m
Full, 100% of the Moon is Illuminated
May 24
Full
May 24
Full
May 31
Last Quarter
Jun 8
New
Jun 16
First Quarter

Hourly Weather History & Observations

Time (CDT) Temp. Dew Point Humidity Pressure Visibility Wind Dir Wind Speed Gust Speed Precip Events Conditions
12:54 AM 57.0 °F 52.0 °F 83% 30.22 in 10.0 mi NNE 3.5 mph - N/A   Clear
1:54 AM 55.0 °F 51.1 °F 86% 30.24 in 10.0 mi Calm Calm - N/A   Clear
2:54 AM 55.0 °F 50.0 °F 83% 30.25 in 10.0 mi Calm Calm - N/A   Clear
3:54 AM 53.1 °F 50.0 °F 89% 30.26 in 10.0 mi Calm Calm - N/A   Clear
4:54 AM 51.1 °F 48.0 °F 89% 30.26 in 10.0 mi East 4.6 mph - N/A   Clear
5:54 AM 52.0 °F 48.0 °F 86% 30.29 in 9.0 mi Calm Calm - N/A   Clear
6:54 AM 55.9 °F 50.0 °F 80% 30.31 in 10.0 mi SE 6.9 mph - N/A   Mostly Cloudy
7:54 AM 59.0 °F 52.0 °F 78% 30.32 in 10.0 mi South 9.2 mph - N/A   Clear
8:54 AM 63.0 °F 53.1 °F 70% 30.31 in 10.0 mi SE 9.2 mph - N/A   Clear
9:54 AM 64.9 °F 46.9 °F 52% 30.31 in 10.0 mi SE 16.1 mph 23.0 mph N/A   Partly Cloudy
10:54 AM 66.9 °F 48.0 °F 51% 30.31 in 10.0 mi SE 11.5 mph 21.9 mph N/A   Scattered Clouds
11:54 AM 68.0 °F 48.0 °F 49% 30.29 in 10.0 mi ESE 12.7 mph 21.9 mph N/A   Clear
12:54 PM 70.0 °F 48.0 °F 46% 30.25 in 10.0 mi ESE 12.7 mph 20.7 mph N/A   Clear
1:54 PM 71.1 °F 46.9 °F 42% 30.27 in 10.0 mi SE 9.2 mph 23.0 mph N/A   Clear
2:54 PM 72.0 °F 46.9 °F 41% 30.24 in 10.0 mi SE 10.4 mph 19.6 mph N/A   Clear
3:54 PM 73.0 °F 46.9 °F 39% 30.22 in 10.0 mi SSE 6.9 mph 20.7 mph N/A   Clear
4:54 PM 73.9 °F 46.9 °F 38% 30.19 in 10.0 mi SSE 10.4 mph 17.3 mph N/A   Mostly Cloudy
5:54 PM 72.0 °F 46.0 °F 40% 30.17 in 10.0 mi ESE 12.7 mph - N/A   Overcast
6:54 PM 72.0 °F 45.0 °F 38% 30.15 in 10.0 mi SE 8.1 mph 16.1 mph N/A   Scattered Clouds
7:54 PM 71.1 °F 45.0 °F 39% 30.14 in 10.0 mi SE 8.1 mph - N/A   Clear
8:54 PM 69.1 °F 46.0 °F 44% 30.14 in 10.0 mi ESE 4.6 mph - N/A   Clear
9:54 PM 66.9 °F 46.0 °F 47% 30.13 in 10.0 mi ESE 6.9 mph - N/A   Clear
10:54 PM 66.9 °F 46.0 °F 47% 30.15 in 10.0 mi SE 6.9 mph - N/A   Clear
11:54 PM 64.9 °F 45.0 °F 48% 30.15 in 10.0 mi East 5.8 mph - N/A   Clear